Weather History for CWNB - November, 2012

Change the Weather History Date:

Sunday, November 18, 2012

  Actual Average Record
Temperature  
Mean Temperature 47 °F -  
Max Temperature 49 °F - - ()
Min Temperature 45 °F - - ()
Degree Days  
Heating Degree Days 18    
Moisture  
Dew Point 39 °F    
Average Humidity 73    
Maximum Humidity 88    
Minimum Humidity 52    
Precipitation  
Precipitation 0.00 in - - ()
Sea Level Pressure  
Sea Level Pressure 30.49 in    
Wind  
Wind Speed - ()    
Max Wind Speed -    
Max Gust Speed -    
T = Trace of Precipitation, MM = Missing Value Source: Averaged Metar Reports

Daily Weather History Graph

Daily Weather History Graph

Search for Another Location

Airport or City:

Trip Planner

Search our weather history database for the weather conditions in past years. The results will help you decide how hot, cold, wet, or windy it might be!

Date:

Astronomy

Nov. 18, 2012 Rise Set
Actual Time 7:23 AM EST 5:06 PM EST
Civil Twilight 6:53 AM EST 5:36 PM EST
Nautical Twilight 6:19 AM EST 6:10 PM EST
Astronomical Twilight 5:46 AM EST 6:43 PM EST
Moon 11:48 AM EST (11/18) 10:25 PM EST (11/18)
Length of Visible Light 10h 43m
Length of Day
9h 42m
Waxing Crescent, 30% of the Moon is Illuminated
Nov 18
Waxing Crescent
Nov 20
First Quarter
Nov 28
Full
Dec 6
Last Quarter
Dec 13
New

Hourly Weather History & Observations

Time (EST) Temp. Dew Point Humidity Pressure Visibility Wind Dir Wind Speed Gust Speed Precip Events Conditions
12:00 AM 47.5 °F 44.1 °F 88% 30.55 in - North - - N/A   Unknown
1:00 AM 47 °F 43 °F 81% 30.53 in - Calm Calm - -  
1:00 AM 47.5 °F 43.0 °F 84% 30.53 in - North - - N/A   Unknown
2:00 AM 48.0 °F 42.8 °F 82% 30.53 in - North - - N/A   Unknown
3:00 AM 48.2 °F 43.7 °F 84% 30.53 in - North - - N/A   Unknown
4:00 AM 48.6 °F 42.8 °F 80% 30.52 in - North - - N/A   Unknown
5:00 AM 48.0 °F 40.1 °F 74% 30.52 in - North - - N/A   Unknown
6:00 AM 47.3 °F 39.0 °F 73% 30.52 in - North - - N/A   Unknown
7:00 AM 47 °F 37 °F 57% 30.52 in - Calm Calm - -  
7:00 AM 46.9 °F 36.7 °F 68% 30.52 in - North - - N/A   Unknown
8:00 AM 46.6 °F 35.8 °F 66% 30.53 in - North - - N/A   Unknown
9:00 AM 46.0 °F 36.9 °F 70% 30.53 in - North - - N/A   Unknown
10:00 AM 46.2 °F 37.2 °F 71% 30.53 in - North - - N/A   Unknown
11:00 AM 45.3 °F 31.6 °F 59% 30.51 in - North - - N/A   Unknown
12:00 PM 45.5 °F 33.6 °F 63% 30.49 in - North - - N/A   Unknown
1:00 PM 46 °F 34 °F 52% 30.48 in - Calm Calm - -  
1:00 PM 46.4 °F 34.0 °F 62% 30.48 in - North - - N/A   Unknown
2:00 PM 48.0 °F 35.1 °F 61% 30.47 in - North - - N/A   Unknown
3:00 PM 47.5 °F 33.8 °F 59% 30.45 in - North - - N/A   Unknown
4:00 PM 47.8 °F 38.1 °F 69% 30.45 in - North - - N/A   Unknown
5:00 PM 47.7 °F 39.4 °F 73% 30.45 in - North - - N/A   Unknown
6:00 PM 48.0 °F 41.5 °F 78% 30.45 in - North - - N/A   Unknown
7:00 PM 49 °F 43 °F 73% 30.45 in - Calm Calm - -  
7:00 PM 48.6 °F 43.0 °F 81% 30.45 in - North - - N/A   Unknown
8:00 PM 48.6 °F 43.3 °F 82% 30.45 in - North - - N/A   Unknown
9:00 PM 48.7 °F 44.8 °F 86% 30.44 in - North - - N/A   Unknown
10:00 PM 48.9 °F 44.4 °F 84% 30.44 in - North - - N/A   Unknown
11:00 PM 48.7 °F 43.3 °F 82% 30.43 in - North - - N/A   Unknown